Location: Bodest
(46.3000°N, 22.5667°E)
Time: 12:16:36
(UTC+00:00)

Cosmos 1844 Rocket - Pass Details

Date: 07 June 2022
Orbit: 826 x 843 km, 71.0° (Epoch: 28 June)

Event Time Altitude Azimuth Distance (km) Brightness Sun altitude
Rises 20:37:20 0° 314° (NW) 3,374 7.2 -16.4°
Reaches altitude 10° 20:41:49 10° 280° (W) 2,431 5.6 -16.8°
Maximum altitude 20:43:17 11° 265° (W) 2,355 5.3 -16.9°
Drops below altitude 10° 20:44:45 10° 249° (WSW) 2,426 5.1 -17.0°
Enters shadow 20:48:43 - 218° (SW) 3,212 5.5 -17.3°
